Find Starlink 31305

NORAD ID: 59232 Int'l Des: 2024-049 Owner: SPXS Country: US Constellation: starlink operational
LEOCIRCULAR

Live Position

Loading 3D Globe...

About Starlink 31305

Description loading...

Upcoming Passes

Passes for default location (London). Set your location on the main map for personalized predictions.

Altitude History

Loading altitude history...

Two-Line Element Set

1 59232U 24049B 26132.73706071 .00002235 00000-0 90687-4 0 9991
2 59232 43.0059 141.6135 0001369 269.2688 90.8007 15.27587993122189
Epoch: May 12, 2026 • Age: 7 hours

Current Status

Altitude 495.2 km
Velocity 7.62 km/s
Sub-Earth Point -42.53°S, 173.34°E
Launch Date Mar 16, 2024
Age 2.1 years
Type internet

Technical Details

Classification Payload
Mass 730.00 kg
Dry Mass 700.00 kg
Total Mass 730.00 kg
Length 0.30 m
Diameter 4.10 m
Span 29.00 m
Shape Box + pan
Manufacturer SPXS
Bus Type Starlink V2M
Phase Status In Orbit
Owner/State SPXS/US

Most Searched